Simultaneous Nadir Overpasses (SNOs) Predictions

Prediction of SNOs between AQUA and GOES-15 Satellite Orbit:

Table of predicted SNOs for the next 14.0 days since TLE Epoch: 11/11/2014
Index Date Time (AQUA) AQUA Lat,Lon GOES-15 Lat,Lon Distance(km) Time Diff (sec)
1 11/12/2014 22:16:55 0.84,-130.44 -0.06,-134.56 469.35 80
2 11/13/2014 10:38:09 0.27,-135.59 0.03,-134.55 118.28 80
3 11/15/2014 10:25:53 -0.34,-132.61 0.03,-134.46 210.14 80
4 11/15/2014 22:47:16 -0.71,-137.80 -0.01,-134.42 384.80 80
5 11/17/2014 22:34:59 -0.12,-134.82 -0.01,-134.32 56.55 80
6 11/19/2014 22:22:42 0.49,-131.83 -0.02,-134.22 271.18 80
7 11/20/2014 10:43:56 0.61,-136.98 -0.01,-134.21 315.44 80
8 11/22/2014 10:31:39 -0.04,-134.00 -0.00,-134.10 11.66 80
9 11/24/2014 10:19:21 -0.65,-131.02 0.01,-133.98 337.71 80
10 11/24/2014 22:40:43 -0.48,-136.19 0.02,-133.92 258.87 80




NCC Satellite Simultaneous Nadir Overpasses (SNOs) Prediction Service
